{"data":{"norad_id":37225,"intl_designator":"2010-062D","name":"FASTSAT-HSV01 (USA 220)","alt_names":[],"object_type":"PAYLOAD","status":"ACTIVE","operator":null,"country":"US","launch_date":"2010-11-20","launch_site_code":"KODAK","launch_vehicle":null,"mission":null,"orbit_class":"UNKNOWN","rcs_meters":null,"size_class":null,"mass_kg":null,"dimensions":null,"purposes":[],"wikipedia_slug":null,"has_3d_model":false,"image_url":null,"decayed_at":null,"tle_current":{"epoch":"2026-09-20T02:59:05.561952Z","epoch_age_seconds":58285,"freshness":"FRESH","line1":"1 37225U 10062D   26263.12436993  .00000194  00000+0  31683-4 0  9992","line2":"2 37225  71.9721 308.5586 0018288 305.6734  54.2728 14.82216968128194","mean_motion":14.82216968,"eccentricity":0.0018288,"inclination_deg":71.9721,"raan_deg":308.5586,"arg_perigee_deg":305.6734,"mean_anomaly_deg":54.2728,"bstar":3.1683e-5,"rev_number":12819,"period_min":97.151768674126,"perigee_km":609.5325048384,"apogee_km":635.13743110846,"semimajor_km":7000.4719679734,"source":"CELESTRAK","updated_at":"2026-09-20T09:00:13.797185Z"}}}